Showing default

HRC MONOBLOCK CAMERA, 66052

Orbit data source: Space-Track

HRC MONOBLOCK CAMERA, 66052 is a payload satellite owned by UrtheCast (CIS) in LEO that was delivered to the ISS. Payload-class satellites include a variety of spacecraft equipped with specific instruments for various scientific and technological missions. These include communications satellites like Starlink; space stations such as the ISS; scientific satellites like the Hubble; Earth observation satellites from companies like Planet Labs, Umbra, and HawkEye 360; GPS; miniature CubeSats for education and research; and military/defense satellites.

Loading next visibility...
Identifier
66052, 1998-067XR
Orbit
LEO
Country
Flag of CISCIS
Related business
Manufacturer
Unknown
Mission
Spacecraft
Bus & Motor
Unknown
Mass
Wet unknown, 82 kg dry
Launch date (UTC)
1998-11-20 (27 years ago)
Launch vehicle
Unknown
Launch site
Tyuratam Missile And Space Complex (TTMTR)
Object type
Payload
Rocket body
Debris
Shape & HBR
Unknown
Radar Cross Section
RCS unknown

Expand to show TLE details & history
Last TLE update: 13 hours ago

TLE from 13 hours ago
0 HRC MONOBLOCK CAMERA
1 66052U 98067XR  25309.25196254  .00030019  00000-0  51590-3 0  9998
2 66052  51.6322 327.9600 0004573  29.5729 330.5518 15.50861039  3017
Epoch: 2025-11-05T06:02Z
TLE epoch observation values (Epoch: 2025-11-05T06:02:49.563Z)
Latitude
-0.00003°
Longitude
-167.47384°
Altitude
412.247 km
Speed
7.666 km/s
True Right ascension
21h 51m 50s
True Declination
0° 00' 00"
Sunlit
Object was in daylight at epoch
Visualization orbit readout
Latitude
Unknown
Longitude
Unknown
Altitude
Unknown
Speed
Unknown
Apparent Right ascension
Unknown
Apparent Declination
Unknown
Sunlit
N/A
Visualization observer readout
Local Sidereal Time
15:29:43
Azimuth
Unknown
Elevation
Unknown
Doppler factor
Unknown
Orbital elements
Apogee altitude
417.827 km
Perigee altitude
411.614 km
Semi-major axis
6,792.857 km
Eccentricity
0.00046
Inclination
51.6322°
RAAN
327.96°
Arg. of periapsis
29.5729°
True anomaly
330.52602°
Mean anomaly
330.5518°
Eccentric anomaly
330.53891°
Mean motion
3.87672 °/min
Orbital period
92.86 mins
BSTAR
0.0005159
Loading maneuver chart data...
Computing Atmospheric mass density...

Documentation

Showing up to 5 results
|